Terminal Aerodrome Forecast
Issued by NWS

Home | Current Version | Previous Version | Text Only | Print | Product List | Glossary On
Versions: 1 2 3 4 5 6 7 8 9 10 11 12 13 14 15
000
FTUS46 KEKA 232337
TAFUKI
TAF
KUKI 232337Z 2400/2424 23010G16KT P6SM SCT200
     FM240400 14006KT P6SM SCT080 BKN120
     FM241000 14005KT P6SM BKN050 OVC100
     FM241500 15004KT P6SM VCSH SCT025 OVC040
     FM242000 14008KT P6SM -RA OVC025=

USA.gov is the U.S. government's official web portal to all federal, state and local government web resources and services.